www.pogodaiklimat.ru

Погода и климат >> Архив погоды >> Пакистан >> Дера-Исмаил-Хан


ПОГОДА в Дера-Исмаил-Хане

  • Прогноз погоды в Дера-Исмаил-Хане
  • Монитор погоды в Дера-Исмаил-Хане

АРХИВ ПОГОДЫ в Дера-Исмаил-Хане

Время (UTC), дата Ветер
(напр.,м/с)
 
Видим.   Явления Облачность Т
(С)
Тd
(С)
f
(%)
Тe
(С)
Тes
(С)
Комфортность P
(гПа)
Po
(гПа)
Тmin
(С)
Tmax
(С)
R
(мм)
R24
(мм)
S
(см)
12 16.07 ЮВ 1 10 км 8/3 1110 м
[Sc As op]
+39.0 +27.6 53 +58 +59 опасность
перегрева
993.8 975.5 +40.1
15 16.07 СВ 2 4000 м 5/0
[As op]
+35.5 +27.4 63 +54 +54 опасность
перегрева
994.8 1000.0
18 16.07 СВ 1 4000 м 9/6 300 м
[Sc As op]
+32.5 +26.3 70 +49 +49 опасность
перегрева
997.8 978.9
21 16.07 штиль 0 4000 м 8/3 1110 м
[Sc As op]
+31.0 +26.1 75 +46 +46 опасность
перегрева
997.6 1000.0
00 17.07 ЮВ 2 4000 м 10/5 1110 м
[Sc As op]
+28.5 +24.2 78 +40 +40 очень
душно
999.4 980.3
03 17.07 ЮВ 2 4000 м 8/3 1110 м
[Sc As op]
+29.0 +24.0 74 +40 +42 очень
душно
1000.6 981.5 +26.0
06 17.07 СВ 2 10 км 6/4 300 м
[Sc As op]
+32.5 +24.8 64 +46 +55 опасность
перегрева
1000.0 981.1
09 17.07 ЮВ 2 10 км 6/3 1110 м
[Sc As op]
+36.0 +26.4 58 +53 +61 опасность
перегрева
999.0 980.1
12 17.07 ЮВ 1 10 км 4/4 1110 м
[Sc]
+37.5 +27.4 57 +56 +60 опасность
перегрева
996.9 978.3 +38.1
15 17.07 СВ 1 4000 м 5/5 1110 м
[Sc]
+35.5 +25.9 58 +51 +51 опасность
перегрева
996.5 977.6
18 17.07 СВ 1 4000 м 9/3 1110 м
[Sc As op]
+33.0 +24.6 61 +46 +46 опасность
перегрева
998.3 979.4
21 17.07 СВ 1 4000 м 9/3 1110 м
[Sc As op]
+31.0 +24.6 69 +44 +44 опасность
перегрева
997.8 1000.0
00 18.07 штиль 0 10 км 10/4 1110 м
[Sc As op]
+30.0 +24.3 72 +42 +42 опасность
перегрева
997.7 978.7
03 18.07 штиль 0 4000 м 10/4 1110 м
[Sc As op]
+30.0 +26.5 82 +46 +47 опасность
перегрева
998.4 979.4 +26.5
06 18.07 СВ 1 10 км 8/4 1110 м
[Sc As op]
+32.0 +26.5 73 +49 +55 опасность
перегрева
999.2 980.2
09 18.07 ЮВ 1 10 км 9/4 1110 м
[Sc As op]
+30.0 +22.8 65 +40 +43 очень
душно
998.4 1000.0
12 18.07 ЮВ 1 10 км 5/0
[As op]
+32.0 +23.4 60 +43 +46 опасность
перегрева
996.6 977.8 +34.0
15 18.07 штиль 0 4000 м 10/5 1110 м
[Sc As op]
+31.0 +23.9 66 +43 +43 опасность
перегрева
998.2 979.0
18 18.07 штиль 0 4000 м ясно +30.0 +24.3 72 +42 +42 опасность
перегрева
999.3 980.4
21 18.07 штиль 0 4000 м 10/5 1110 м
[Sc As op]
+28.0 +25.2 85 +41 +41 опасность
перегрева
998.5 1000.0
00 19.07 штиль 0 4000 м 10/5 1110 м
[Sc As op]
+28.0 +25.2 85 +41 +41 опасность
перегрева
999.2 980.1
03 19.07 ЮВ 1 10 км 10/5 1110 м
[Sc As op]
+30.0 +25.8 78 +45 +45 опасность
перегрева
1000.6 981.7 +27.1
06 19.07 штиль 0 10 км 10/5 1110 м
[Sc As op]
+34.0 +26.5 65 +51 +53 опасность
перегрева
1000.4 981.6
09 19.07 штиль 0 10 км 6/6 1110 м
[Sc]
+38.0 +27.2 54 +56 +65 опасность
перегрева
998.6 980.1
12 19.07 штиль 0 10 км ясно +38.0 +25.6 49 +52 +58 опасность
перегрева
997.2 978.7 +38.5
15 19.07 СВ 2 1000 м пыльный позёмок 10/5 1110 м
[Sc As op]
+30.5 +24.1 69 +42 +42 опасность
перегрева
999.2 980.2
18 19.07 СВ 2 1000 м пыльный позёмок ясно +29.0 +24.8 78 +41 +41 опасность
перегрева
1000.4 981.3
21 19.07 штиль 0 4000 м ясно +29.0 +24.8 78 +41 +41 опасность
перегрева
999.8 980.7
00 20.07 СВ 1 4000 м 10/5 1110 м
[Sc As op]
+28.0 +23.7 77 +38 +38 очень
душно
1001.4 982.3
03 20.07 СВ 1 4000 м 10/5 1110 м
[Sc As op]
+29.0 +24.8 78 +41 +42 опасность
перегрева
1002.9 983.8 +26.0
06 20.07 штиль 0 10 км ясно +34.0 +24.1 56 +46 +72 опасность
перегрева
1003.5 984.6
09 20.07 СВ 1 10 км ясно +37.0 +25.2 51 +51 +73 опасность
перегрева
1000.4 1000.0
12 20.07 штиль 0 10 км ясно +39.0 +25.2 46 +52 +58 опасность
перегрева
997.1 978.7 +40.0
15 20.07 штиль 0 4000 м ясно +35.5 +25.9 58 +51 +51 опасность
перегрева
997.7 1000.0
18 20.07 штиль 0 4000 м ясно +33.0 +27.6 73 +52 +52 опасность
перегрева
998.9 980.1
21 20.07 штиль 0 4000 м ясно +31.0 +26.9 79 +48 +48 опасность
перегрева
997.8 1000.0
00 21.07 СВ 1 4000 м ясно +30.0 +25.8 78 +45 +45 опасность
перегрева
999.7 980.7
03 21.07 штиль 0 10 км ясно +31.0 +26.9 79 +48 +57 опасность
перегрева
1001.2 982.2 +28.0
06 21.07 ЮВ 1 10 км ясно +36.5 +26.2 56 +53 +75 опасность
перегрева
1001.4 982.6
09 21.07 СВ 1 10 км 4/4 1110 м
[Sc]
+38.5 +26.2 50 +54 +68 опасность
перегрева
999.9 1000.0
12 21.07 штиль 0 10 км ясно +39.0 +25.2 46 +52 +58 опасность
перегрева
996.5 978.1 +41.1
15 21.07 штиль 0 10 км ясно +37.0 +26.8 56 +54 +54 опасность
перегрева
996.4 977.8
18 21.07 штиль 0 4000 м ясно +34.0 +26.5 65 +51 +51 опасность
перегрева
997.8 979.1
21 21.07 штиль 0 4000 м ясно +32.0 +26.5 73 +49 +49 опасность
перегрева
997.8 978.9
00 22.07 штиль 0 4000 м ясно +31.0 +26.1 75 +46 +46 опасность
перегрева
998.6 979.7
03 22.07 штиль 0 10 км ясно +31.5 +26.7 76 +49 +57 опасность
перегрева
1000.4 981.4 +27.5
06 22.07 штиль 0 10 км 5/5 1200 м
[Sc]
+37.0 +27.6 59 +56 +70 опасность
перегрева
999.8 981.2
09 22.07 штиль 0 10 км 4/4 1200 м
[Sc]
+39.5 +26.6 48 +55 +70 опасность
перегрева
997.3 978.9
12 22.07 штиль 0 10 км ясно +39.0 +25.2 46 +52 +58 опасность
перегрева
995.2 977.0 +42.0
15 22.07 штиль 0 4000 м ясно +35.0 +25.3 57 +49 +49 опасность
перегрева
995.8 977.0
18 22.07 штиль 0 4000 м ясно +33.0 +26.3 68 +49 +49 опасность
перегрева
997.3 978.5
21 22.07 штиль 0 4000 м ясно +32.0 +26.5 73 +49 +49 опасность
перегрева
996.8 977.9
00 23.07 СВ 1 4000 м 5/5 1110 м
[Sc]
+31.0 +26.9 79 +48 +48 опасность
перегрева
998.0 979.1
03 23.07 СВ 1 10 км ясно +32.0 +26.5 73 +49 +56 опасность
перегрева
998.8 979.9 +30.0
06 23.07 ЮВ 1 10 км ясно +38.0 +27.2 54 +56 +78 опасность
перегрева
998.8 980.3

 

Местоположение метеостанции Дера-Исмаил-Хан (Пакистан): широта 31.82 долгота 70.92 высота над уровнем моря 173 м.

В архиве по умолчанию представлена погода в Дера-Исмаил-Хане за последнюю неделю. Архивные данные за месяц целиком и за предыдущие месяцы, начиная с января 2011 года, Вы можете получить, выбрав интересующий диапазон дат из раскрывающегося списка и нажав кнопку "Ввод!".


*Определитесь, кто Вы:
робот инопланетянин человек

Внимание! Время в таблицах - всемирное. Для получения местного времени необходимо прибавить поправку, которая равна 5 ч.

Смотрите также архив погоды в соседних городах и на ближайших метеорологических станциях:

Погода в Бхаккаре (Пакистан) (26 км)
Погода в Леяхе (Пакистан) (89 км)
Погода в Нур Пур Тал (Пакистан) (93 км)
Погода в Мианвали (Пакистан) (99 км)
Погода в Джанге (Пакистан) (146 км)
Погода в Зхобе (Пакистан) (147 км)
Погода в Банну (Пакистан) (152 км)
Погода в Кот Адду (Пакистан) (152 км)
Погода в Джаухарабаде (Пакистан) (161 км)
Погода в Саргодхе (Пакистан) (167 км)

Пояснения к столбцам:

Ветер - указаны скорость ветра в м/с - средняя за 10 мин, порывы в срок и между сроками (в фигурных скобках) и направление, откуда дует ветер: С - северный, СВ - северо-восточный, В - восточный, ЮВ - юго-восточный, Ю - южный, ЮЗ - юго-западный, З - западный, СЗ - северо-западный.
Видимость - горизонтальная дальность видимости в метрах или километрах. При видимости от 1 до 10 км при отсутствии осадков обычно наблюдается дымка, при ухудшении видимости до 1 км и менее - туман. В сухую погоду видимость может ухудшаться дымом, пылью или мглою.
Явления - указаны атмосферные явления, наблюдавшиеся в срок или в последний час перед сроком; фигурными скобками обозначены явления, наблюдавшиеся между сроками (за 1-3 часа до срока); квадратными скобками обозначены град или гололедные отложения с указанием их диаметра в мм.
Облачность - указаны через наклонную черту общая и нижняя облачность в баллах и высота нижней границы облаков в метрах; квадратными скобками обозначены формы облаков: Ci - перистые, Cs - перисто-слоистые, Cc - перисто-кучевые, Ac - высококучевые, As - высокослоистые, Sc - слоисто-кучевые, Ns - слоисто-дождевые, Cu - кучевые, Cb - кучево-дождевые. Подробнее классификацию облаков см. в Атласе облаков (PDF).
T - Температура воздуха - температура, измеренная на высоте 2 м над землей.
Td - Температура точки росы - температура, при понижении до которой содержащийся в воздухе водяной пар достигнет насыщения.
f - Относительная влажность воздуха - влажноcть воздуха, измеренная на высоте 2 м над землей.
Te - Эффективная температура - температура, которую ощущает одетый по сезону человек в тени. Характеристика душности погоды. При расчете учитывается влияние влажности воздуха и скорости ветра на теплоощущения человека.
Tes - Эффективная температура на солнце - температура, которую ощущает человек, с поправкой на солнечный нагрев. Характеристика знойности погоды. Зависит от высоты солнца над горизонтом, облачности и скорости ветра. Ночью, в пасмурную погоду, а также при ветре 12 м/с и более поправка равна нулю.
P - Атмосферное давление - приведенное к уровню моря атмосферное давление.
Po - Атмосферное давление - измеренное на уровне метеостанции атмосферное давление.
Tmin - Минимальная температура - минимум температуры воздуха на высоте 2 м над землей.
Tmax - Максимальная температура - максимум температуры воздуха на высоте 2 м над землей.
R - Количество осадков - Количество выпавших осадков за период времени, мм. При наведении курсора мыши на число - период времени, за который выпало указанное количество осадков.
R24 - Количество осадков - Количество выпавших осадков за 24 часа, мм.
S - Снежный покров - Высота снежного покрова, см. При наведении курсора мыши на число - состояние снежного покрова и степень покрытия местности в баллах.